Location: Alsip
(41.6689°N, 87.7387°W)
Time: 14:02:49
(UTC+00:00)

Resurs 01 Rocket - Pass Details

Date: 14 July 2020
Orbit: 634 x 644 km, 98.0° (Epoch: 05 August)

Event Time Altitude Azimuth Distance (km) Brightness Sun altitude
Exits shadow 03:08:50 - 199° (SSW) 2,263 4.1 -15.7°
Reaches altitude 10° 03:09:31 10° 203° (SSW) 2,017 3.9 -15.8°
Maximum altitude 03:13:21 29° 264° (W) 1,170 3.3 -16.3°
Drops below altitude 10° 03:17:12 10° 325° (NW) 2,028 5.5 -16.7°
Sets 03:19:39 0° 336° (NNW) 2,941 6.6 -17.0°
